This is the latest recevied weather packets stored in our database for station/object HI3FAM-13. If no packets are shown the sender has not sent any weather packets the latest 10 day(s).
| Time | Temp. | Humidity | Pressure | Rain* | Wind** | Luminosity | Snow |
|---|---|---|---|---|---|---|---|
| 1778345756 | 30° C | 62% | 1015 hPa | 0 mm | - | - | - |
| 1778345155 | 29.44° C | 62% | 1015 hPa | 0 mm | - | - | - |
| 1778344554 | 30° C | 63% | 1015 hPa | 0 mm | - | - | - |
| 1778343949 | 29.44° C | 63% | 1016 hPa | 0 mm | - | - | - |
| 1778343348 | 31.11° C | 63% | 1016 hPa | 0 mm | - | - | - |
| 1778342748 | 30° C | 64% | 1016 hPa | 0 mm | - | - | - |
| 1778342147 | 28.33° C | 65% | 1016 hPa | 0 mm | - | - | - |
| 1778341547 | 28.33° C | 65% | 1016 hPa | 0 mm | - | - | - |
| 1778340945 | 28.33° C | 65% | 1016 hPa | 0 mm | - | - | - |
| 1778340344 | 28.33° C | 65% | 1016 hPa | 0 mm | - | - | - |
| 1778339742 | 28.33° C | 65% | 1016 hPa | 0 mm | - | - | - |
| 1778339142 | 28.33° C | 65% | 1016 hPa | 0 mm | - | - | - |
| 1778338541 | 28.33° C | 65% | 1016 hPa | 0 mm | - | - | - |
| 1778337940 | 27.78° C | 65% | 1017 hPa | 0 mm | - | - | - |
| 1778337340 | 28.33° C | 68% | 1017 hPa | 0 mm | - | - | - |
| 1778336739 | 28.33° C | 68% | 1017 hPa | 0 mm | - | - | - |
| 1778336139 | 27.22° C | 71% | 1017 hPa | 0 mm | - | - | - |
| 1778335538 | 27.22° C | 71% | 1017 hPa | 0 mm | - | - | - |
| 1778334938 | 26.67° C | 74% | 1017 hPa | 0 mm | - | - | - |
| 1778334337 | 26.11° C | 74% | 1017 hPa | 0 mm | - | - | - |
| 1778333737 | 26.11° C | 74% | 1017 hPa | 0 mm | - | - | - |
| 1778333137 | 26.11° C | 75% | 1017 hPa | 0 mm | - | - | - |
| 1778332536 | 26.67° C | 77% | 1017 hPa | 0 mm | - | - | - |
| 1778331936 | 25.56° C | 82% | 1017 hPa | 0 mm | - | - | - |
| 1778331335 | 23.89° C | 89% | 1017 hPa | 0 mm | - | - | - |
* Rain latest hour (hover to see other rain measurements)
** Current wind speed in m/s (hover to see current wind gust speed)